Location: Keppel Henge
(44.7900°N, 80.9447°W)
Time: 13:52:12
(UTC-05:00)

N. Korean satellite - Pass Details

Date: 07 October 2017
Orbit: 461 x 513 km, 97.2° (Epoch: 12 December)

Event Time Altitude Azimuth Distance (km) Brightness Sun altitude
Rises 20:37:08 0° 215° (SW) 2,574 10.6 -19.3°
Reaches altitude 10° 20:40:32 10° 249° (WSW) 1,685 10.1 -19.9°
Maximum altitude 20:41:47 11° 270° (W) 1,592 10.3 -20.1°
Drops below altitude 10° 20:43:02 10° 290° (WNW) 1,679 10.5 -20.3°
Sets 20:46:26 0° 325° (NW) 2,552 11.0 -20.9°
